Wetterdaten: aktuell Samstag, 15.08.2020 15:55
Datum Zeit Temp. A. Feuchte A. Luftdruck Regen Wind Richtung Richtung Windben
15.08.2020 15:55 24,9 C 66 % 1012,6 hPa 0,0 l/m 0,0 km/h O 98 0,0 km/h
15.08.2020 15:50 24,9 C 65 % 1012,6 hPa 0,0 l/m 0,0 km/h NO 42 0,0 km/h
15.08.2020 15:49 25,0 C 65 % 1012,6 hPa 0,0 l/m 0,0 km/h NO 42 3,2 km/h
15.08.2020 15:45 25,0 C 63 % 1012,6 hPa 0,0 l/m 1,4 km/h N-NO 23 14,5 km/h
15.08.2020 15:40 25,2 C 64 % 1012,5 hPa 0,0 l/m 0,0 km/h N-NW 339 0,0 km/h
15.08.2020 15:39 25,2 C 64 % 1012,5 hPa 0,0 l/m 0,6 km/h N-NW 340 14,5 km/h
15.08.2020 15:35 25,2 C 61 % 1012,6 hPa 0,0 l/m 1,4 km/h N-NW 348 8,0 km/h
15.08.2020 15:34 25,2 C 62 % 1012,6 hPa 0,0 l/m 1,1 km/h NO 52 16,1 km/h
15.08.2020 15:30 25,1 C 67 % 1012,5 hPa 0,0 l/m 0,0 km/h NW 322 0,0 km/h
15.08.2020 15:25 25,1 C 64 % 1012,5 hPa 0,0 l/m 1,4 km/h NW 308 16,1 km/h
15.08.2020 15:19 25,1 C 63 % 1012,6 hPa 0,0 l/m 0,3 km/h NO 35 17,7 km/h
15.08.2020 15:14 25,1 C 61 % 1012,6 hPa 0,0 l/m 1,6 km/h N-NO 23 16,1 km/h
15.08.2020 15:10 25,0 C 61 % 1012,6 hPa 0,0 l/m 0,0 km/h N-NO 23 0,0 km/h
15.08.2020 15:09 25,0 C 61 % 1012,6 hPa 0,0 l/m 4,2 km/h N-NO 27 16,1 km/h
15.08.2020 15:05 24,9 C 61 % 1012,7 hPa 0,0 l/m 5,6 km/h N 359 17,7 km/h
15.08.2020 14:59 24,9 C 61 % 1012,7 hPa 0,0 l/m 4,3 km/h NO 49 16,1 km/h
15.08.2020 14:55 24,9 C 62 % 1012,7 hPa 0,0 l/m 0,8 km/h N-NO 33 14,5 km/h
15.08.2020 14:50 24,8 C 63 % 1012,8 hPa 0,0 l/m 12,9 km/h N-NW 339 16,1 km/h
15.08.2020 14:49 24,8 C 63 % 1012,8 hPa 0,0 l/m 5,3 km/h N-NW 339 19,3 km/h
15.08.2020 14:45 24,6 C 61 % 1012,9 hPa 0,0 l/m 0,5 km/h NO 35 8,0 km/h
15.08.2020 14:40 24,5 C 62 % 1012,9 hPa 0,0 l/m 7,0 km/h N 349 20,9 km/h
15.08.2020 14:35 24,6 C 62 % 1012,9 hPa 0,0 l/m 8,7 km/h N-NW 335 12,9 km/h
15.08.2020 14:34 24,6 C 62 % 1012,9 hPa 0,0 l/m 11,7 km/h N 355 19,3 km/h
15.08.2020 14:30 24,6 C 63 % 1012,9 hPa 0,0 l/m 7,9 km/h N 1 17,7 km/h
15.08.2020 14:25 24,7 C 63 % 1012,9 hPa 0,0 l/m 4,2 km/h N 351 17,7 km/h
15.08.2020 14:19 24,5 C 63 % 1013,0 hPa 0,0 l/m 5,7 km/h N-NW 339 19,3 km/h
15.08.2020 14:14 24,3 C 62 % 1013,0 hPa 0,0 l/m 13,6 km/h N 350 20,9 km/h
15.08.2020 14:10 24,2 C 63 % 1013,0 hPa 0,0 l/m 11,5 km/h N 7 16,1 km/h
15.08.2020 14:09 24,2 C 63 % 1013,0 hPa 0,0 l/m 12,7 km/h N 352 20,9 km/h
15.08.2020 14:05 24,1 C 64 % 1013,1 hPa 0,0 l/m 2,0 km/h N 360 16,1 km/h
15.08.2020 13:59 23,9 C 63 % 1013,1 hPa 0,0 l/m 6,5 km/h N-NO 12 19,3 km/h
15.08.2020 13:55 23,9 C 65 % 1013,1 hPa 0,0 l/m 5,2 km/h N 7 20,9 km/h
15.08.2020 13:50 23,9 C 65 % 1013,1 hPa 0,0 l/m 10,6 km/h N 3 17,7 km/h
15.08.2020 13:49 23,8 C 65 % 1013,1 hPa 0,0 l/m 7,5 km/h N-NO 23 19,3 km/h
15.08.2020 13:45 23,8 C 66 % 1013,1 hPa 0,0 l/m 11,1 km/h N 1 22,5 km/h
15.08.2020 13:40 23,8 C 65 % 1013,1 hPa 0,0 l/m 9,7 km/h NO 36 16,1 km/h
15.08.2020 13:39 23,8 C 65 % 1013,1 hPa 0,0 l/m 6,6 km/h N-NW 346 20,9 km/h
15.08.2020 13:35 23,7 C 65 % 1013,1 hPa 0,0 l/m 11,9 km/h N-NO 27 29,0 km/h
15.08.2020 13:30 23,7 C 66 % 1013,2 hPa 0,0 l/m 13,6 km/h N-NO 25 27,4 km/h
15.08.2020 13:25 23,7 C 69 % 1013,2 hPa 0,0 l/m 4,2 km/h N-NO 17 17,7 km/h
15.08.2020 13:20 23,7 C 67 % 1013,2 hPa 0,0 l/m 2,6 km/h N-NO 31 14,5 km/h
15.08.2020 13:19 23,7 C 67 % 1013,2 hPa 0,0 l/m 7,6 km/h N-NO 23 17,7 km/h
15.08.2020 13:14 23,6 C 69 % 1013,3 hPa 0,0 l/m 0,3 km/h N-NO 23 9,7 km/h
15.08.2020 13:11 23,3 C 70 % 1013,2 hPa 0,0 l/m 4,4 km/h N-NO 22 17,7 km/h
15.08.2020 13:04 22,9 C 74 % 1013,3 hPa 0,0 l/m 0,6 km/h N-NO 17 16,1 km/h
15.08.2020 13:00 23,0 C 77 % 1013,4 hPa 0,0 l/m 0,0 km/h W-SW 247 0,0 km/h
15.08.2020 12:59 23,0 C 77 % 1013,4 hPa 0,0 l/m 0,0 km/h W-SW 247 0,0 km/h
15.08.2020 12:55 22,9 C 77 % 1013,4 hPa 0,0 l/m 0,0 km/h S 190 0,0 km/h
15.08.2020 12:50 22,6 C 77 % 1013,4 hPa 0,0 l/m 0,0 km/h S 177 0,0 km/h
15.08.2020 12:49 22,6 C 77 % 1013,4 hPa 0,0 l/m 0,0 km/h S 177 0,0 km/h
15.08.2020 12:45 22,5 C 77 % 1013,6 hPa 0,0 l/m 0,0 km/h O-SO 106 0,0 km/h
15.08.2020 12:40 22,5 C 77 % 1013,6 hPa 0,0 l/m 0,0 km/h SO 135 0,0 km/h
15.08.2020 12:35 22,5 C 77 % 1013,6 hPa 0,0 l/m 0,0 km/h SO 135 0,0 km/h
15.08.2020 12:34 22,5 C 77 % 1013,6 hPa 0,0 l/m 0,0 km/h SO 131 0,0 km/h
15.08.2020 12:30 22,4 C 77 % 1013,6 hPa 0,0 l/m 0,0 km/h S-SO 158 0,0 km/h
15.08.2020 12:25 22,5 C 77 % 1013,7 hPa 0,0 l/m 0,0 km/h S-SO 162 0,0 km/h
15.08.2020 12:24 22,4 C 77 % 1013,7 hPa 0,0 l/m 0,0 km/h S-SO 162 0,0 km/h
15.08.2020 12:20 22,4 C 77 % 1013,7 hPa 0,0 l/m 0,0 km/h S-SO 152 0,0 km/h
15.08.2020 12:14 22,4 C 77 % 1013,8 hPa 0,0 l/m 0,0 km/h S-SO 164 0,0 km/h
15.08.2020 12:10 22,3 C 77 % 1013,8 hPa 0,0 l/m 0,0 km/h SO 140 0,0 km/h
15.08.2020 12:09 22,3 C 77 % 1013,8 hPa 0,0 l/m 0,0 km/h SO 144 0,0 km/h
15.08.2020 12:05 22,3 C 77 % 1013,9 hPa 0,0 l/m 0,0 km/h SO 141 0,0 km/h
15.08.2020 12:00 21,9 C 77 % 1013,9 hPa 0,0 l/m 0,0 km/h SO 137 0,0 km/h
15.08.2020 11:59 21,9 C 77 % 1013,9 hPa 0,0 l/m 0,0 km/h SO 125 0,0 km/h
15.08.2020 11:54 21,6 C 75 % 1014,0 hPa 0,0 l/m 0,0 km/h O 97 0,0 km/h
15.08.2020 11:50 21,0 C 76 % 1014,0 hPa 0,0 l/m 0,0 km/h SO 144 0,0 km/h
15.08.2020 11:49 21,0 C 76 % 1014,0 hPa 0,0 l/m 0,0 km/h SO 144 0,0 km/h
15.08.2020 11:45 20,9 C 75 % 1014,1 hPa 0,0 l/m 0,0 km/h SO 125 0,0 km/h
15.08.2020 11:40 20,8 C 74 % 1014,1 hPa 0,0 l/m 0,0 km/h O-SO 117 0,0 km/h
15.08.2020 11:35 20,4 C 74 % 1014,2 hPa 0,0 l/m 0,0 km/h O-SO 123 0,0 km/h
15.08.2020 11:30 20,2 C 73 % 1014,2 hPa 0,0 l/m 0,0 km/h SO 125 0,0 km/h
15.08.2020 11:29 20,2 C 72 % 1014,2 hPa 0,0 l/m 0,0 km/h SO 125 0,0 km/h
15.08.2020 11:25 20,2 C 71 % 1014,2 hPa 0,0 l/m 0,0 km/h SO 132 0,0 km/h
15.08.2020 11:20 19,9 C 70 % 1014,2 hPa 0,0 l/m 0,0 km/h SO 132 0,0 km/h
15.08.2020 11:19 19,9 C 69 % 1014,2 hPa 0,0 l/m 0,0 km/h SO 131 0,0 km/h
15.08.2020 11:15 19,7 C 69 % 1014,3 hPa 0,0 l/m 0,1 km/h S-SO 151 3,2 km/h
15.08.2020 11:10 19,3 C 69 % 1014,3 hPa 0,0 l/m 0,0 km/h N 350 0,0 km/h
15.08.2020 11:09 19,3 C 69 % 1014,3 hPa 0,0 l/m 0,0 km/h N 350 0,0 km/h
15.08.2020 11:04 19,1 C 69 % 1014,4 hPa 0,0 l/m 0,0 km/h N 350 0,0 km/h
15.08.2020 11:00 18,8 C 68 % 1014,4 hPa 0,0 l/m 0,0 km/h N 350 0,0 km/h
15.08.2020 10:59 18,8 C 68 % 1014,4 hPa 0,0 l/m 0,0 km/h N 350 0,0 km/h
15.08.2020 10:55 18,7 C 68 % 1014,4 hPa 0,0 l/m 0,0 km/h N 350 0,0 km/h
15.08.2020 10:50 18,6 C 68 % 1014,5 hPa 0,0 l/m 0,0 km/h N-NW 345 0,0 km/h
15.08.2020 10:49 18,6 C 68 % 1014,5 hPa 0,0 l/m 0,0 km/h N-NW 345 1,6 km/h
15.08.2020 10:45 18,5 C 67 % 1014,5 hPa 0,0 l/m 0,0 km/h S-SW 205 0,0 km/h
15.08.2020 10:44 18,5 C 67 % 1014,5 hPa 0,0 l/m 0,0 km/h S-SW 205 0,0 km/h
15.08.2020 10:40 18,4 C 67 % 1014,4 hPa 0,0 l/m 0,0 km/h S-SW 205 0,0 km/h
15.08.2020 10:39 18,4 C 67 % 1014,4 hPa 0,0 l/m 0,0 km/h S-SW 205 0,0 km/h
15.08.2020 10:35 18,4 C 67 % 1014,5 hPa 0,0 l/m 0,0 km/h S-SW 205 0,0 km/h
15.08.2020 10:30 18,4 C 67 % 1014,5 hPa 0,0 l/m 0,0 km/h S-SW 205 0,0 km/h
15.08.2020 10:25 18,2 C 67 % 1014,5 hPa 0,0 l/m 0,0 km/h S-SW 205 0,0 km/h
15.08.2020 10:24 18,2 C 67 % 1014,5 hPa 0,0 l/m 0,0 km/h S-SW 205 0,0 km/h
15.08.2020 10:19 18,2 C 67 % 1014,4 hPa 0,0 l/m 0,0 km/h S-SW 205 0,0 km/h
15.08.2020 10:15 18,2 C 67 % 1014,4 hPa 0,0 l/m 0,0 km/h S-SW 205 0,0 km/h
15.08.2020 10:09 18,2 C 66 % 1014,4 hPa 0,0 l/m 0,0 km/h S-SW 205 0,0 km/h
15.08.2020 10:04 18,1 C 66 % 1014,4 hPa 0,0 l/m 0,0 km/h S-SW 205 0,0 km/h
15.08.2020 09:59 18,1 C 66 % 1014,4 hPa 0,0 l/m 0,0 km/h S-SW 205 0,0 km/h
_ Min-Zeit 06:55 14:45 18:49 - 16:00 - - 16:00
Minimum _ 17,3 C 61 % 1012,0 hPa - 0,0 km/h - - 0,0 km/h
_ Max-Zeit 15:34 18:34 10:24 00:59 13:30 - - 13:35
Maximum _ 25,2 C 77 % 1014,5 hPa 0,6 l/m 13,6 km/h
N-NO
- - 29,0 km/h
NO
Durchschnitt _ 20,6 C 71 % 1013,1 hPa #2,4 l/m 0,8 km/h N - 2,9 km/h